Skip Page Navigation
NASA JPL Caltech
NASA Logo - Jet Propulsion Laboratory + View the NASA Portal
+ Center for Near-Earth Object Studies
JPL Home Earth Solar System Stars & Galaxies Technology
JPL Solar System Dynamics
BODIES ORBITS EPHEMERIDES TOOLS PHYSICAL DATA DISCOVERY FAQ SITE MAP
JPL Small-Body Database Browser
Search: [ help ]  
1150 Achaia (1929 RB)
Classification: Main-belt Asteroid          SPK-ID: 2001150
Ephemeris | Orbit Diagram | Orbital Elements | Mission Design | Physical Parameters | Discovery Circumstances | Close-Approach Data ]

[ show orbit diagram ]
Orbital Elements at Epoch 2459000.5 (2020-May-31.0) TDB
Reference: JPL 30 (heliocentric ecliptic J2000)
 Element Value Uncertainty (1-sigma)   Units 
e .2043629849753085 3.2402e-08  
a 2.190937226594071 4.6601e-09 au
q 1.743190755073783 7.0685e-08 au
i 2.392267092919572 3.7779e-06 deg
node 206.5164786008769 7.119e-05 deg
peri 139.39233895401 7.1758e-05 deg
M 352.9338906803066 9.9127e-06 deg
tp 2459023.749904862273
(2020-Jun-23.24990486)
3.2636e-05 TDB
period 1184.522538745748
3.24
3.7792e-06
1.035e-08
d
yr
n .3039199240406116 9.6965e-10 deg/d
Q 2.638683698114359 5.6125e-09 au
  Orbit Determination Parameters
   # obs. used (total)      3046  
   data-arc span      33293 days (91.15 yr)  
   first obs. used      1929-09-02  
   last obs. used      2020-10-27  
   planetary ephem.      DE431  
   SB-pert. ephem.      SB431-N16  
   condition code      0  
   norm. resid. RMS      .42204  
   source      ORB  
   producer      Otto Matic  
   solution date      2020-Nov-13 04:21:58  

Additional Information
 Earth MOID = .736989 au 
 Jupiter MOID = 2.77966 au 
 T_jup = 3.644 
[ show covariance matrix ]

Ephemeris | Orbit Diagram | Orbital Elements | Mission Design | Physical Parameters | Discovery Circumstances | Close-Approach Data ]

Physical Parameter Table
Parameter Symbol Value Units Sigma Reference Notes
absolute magnitude H 12.7   n/a MPO473778  
diameter diameter 7.689 km 0.020 urn:nasa:pds:neowise_diameters_albedos::2.0[mainbelt] (http://adsabs.harvard.edu/abs/2014ApJ...791..121M)  
rotation period rot_per 60.99 h n/a LCDB (Rev. 2019-August); Warner et al., 2009 Published Reference List:
[Pravec, P.; Wolf, M.; Sarounova, L. (2007) http://www.asu.cas.cz/~ppravec/neo.htm]
[Durech, J.; Hanus, J.; Oszkiewsicz, D.; Vanco, R. (2016) Astron. Astrophys. 587, A48.]
[Hanus, J.; Durech, J.; Oszkiewicz, D.A.; Behrend, R.; et al. (2016) Astron. Astrophys. 586, A108.]
geometric albedo albedo 0.251   0.017 urn:nasa:pds:neowise_diameters_albedos::2.0[mainbelt] (http://adsabs.harvard.edu/abs/2014ApJ...791..121M)  

1150 Achaia (1929 RB)          Discovered 1929-Sep-02 by Reinmuth, K. at Heidelberg
Reference: DISCOVERY.DBLast Updated: 2003-08-29

[ show close-approach data ]
Alternate Designations
 1929 RB = 1955 SZ1 
Ephemeris | Orbit Diagram | Orbital Elements | Mission Design | Physical Parameters | Discovery Circumstances | Close-Approach Data ]
ABOUT SSD CREDITS/AWARDS PRIVACY/COPYRIGHT GLOSSARY LINKS
FirstGov 2020-Dec-04 17:50 UT
(server date/time)  
NASA Home Page
Site Manager:   Ryan S. Park
Webmaster  Alan B. Chamberlin